sat.trackr.live / text

‹ back to catalog

CSG-1

NORAD 44873 · 2019-092A

PAYLOAD ACTIVE UNKNOWN

§ Identity

Operator
Country
IT
Launch date
2019-12-18
Launch site
FRGUI
Launch vehicle
Mass (kg)
RCS (m²)

Purposes: earth_obs

External: N2YO · Heavens-Above · Gunter

§ Orbital elements

Epoch: 2026-05-25T03:58:01.858656Z

Period
97.16 min
Inclination
97.8887°
Eccentricity
0.0001411
Mean motion
14.82160348 rev/d
Perigee alt
621.5 km
Apogee alt
623.5 km
Semi-major
7,000.7 km
B*
5.1932e-5
RAAN
329.1014°
Arg perigee
94.0091°
Mean anomaly
266.1284°
Rev number
34,806

§ Raw data

CSG-11 44873U 19092A   26145.16529929  .00000361  00000+0  51932-4 0  99912 44873  97.8887 329.1014 0001411  94.0091 266.1284 14.82160348348062

JSON: /api/v1/satellites/44873 · /tle

For live sub-satellite position, see the globe view (requires WebGL).

§ Visibility from observer

Set your observer location to see the next 7 days of passes ≥ 10°. The values pass through the URL so the page stays shareable.

No JS? Fill the form by hand. The geolocation button needs JavaScript.